User: anonymous   Login
Location: Pensacola
(30.4142°N, 87.2155°W)
Time: 00:17:29
(UTC-05:00)
Language:

UKube-1 - Orbit

View from above orbital plane
View from above orbital plane
View from above satellite
View from above satellite

Ground track
Ground track

The orbit data is extracted from the following two-line orbital elements,

1 40074U 14037F   23158.77134556  .00003968  00000-0  43640-3 0  9993
2 40074  98.3458  62.7651 0003117 196.6928 163.4185 14.88231428482850
Epoch (UTC): 07 June 2023 18:30:44
Eccentricity: 0.0003117
inclination: 98.3458°
perigee height: 601 km
apogee height: 605 km
right ascension of ascending node: 62.7651°
argument of perigee: 196.6928°
revolutions per day: 14.88231428
mean anomaly at epoch: 163.4185°
orbit number at epoch: 48285

The dashed part of the orbit path shows where the satellite is in the earth's shadow,  

DLR